Location: ???????
(54.9567°N, 38.2836°E)
Time: 07:30:44
(UTC+00:00)

FENGYUN 3A - Visible Passes

Search period start: 13 July 2024 00:00
Search period end: 23 July 2024 00:00
Orbit: 822 x 835 km, 98.6° (Epoch: 12 July)

Date Brightness Start Highest point End Pass type
(mag) Time Alt. Az. Time Alt. Az. Time Alt. Az.
13 Jul 6.1 22:03:33 10° ENE 22:05:11 11° E 22:06:48 10° E visible
13 Jul 4.2 23:41:18 10° NNE 23:46:39 57° E 23:52:00 10° S visible
14 Jul 4.6 23:23:00 10° NNE 23:28:11 43° E 23:33:20 10° S visible
15 Jul 5.1 23:04:48 10° NNE 23:09:39 32° E 23:14:29 10° SSE visible
16 Jul 5.5 22:46:43 10° NE 22:51:05 24° E 22:55:26 10° SE visible
17 Jul 5.8 22:28:47 10° NE 22:32:27 18° E 22:36:06 10° SE visible
18 Jul 3.8 00:08:03 10° NNE 00:13:32 87° ESE 00:18:58 10° SSW visible
18 Jul 6.0 22:11:13 10° NE 22:13:46 13° E 22:16:19 10° ESE visible
18 Jul 4.0 23:49:41 10° NNE 23:55:07 66° ESE 00:00:31 10° S visible
19 Jul 4.4 23:31:22 10° NNE 23:36:40 49° E 23:41:55 10° S visible
20 Jul 4.8 23:13:08 10° NNE 23:18:09 37° E 23:23:09 10° SSE visible
21 Jul 5.3 22:54:58 10° NNE 22:59:36 28° E 23:04:13 10° SSE visible
22 Jul 5.6 22:36:57 10° NE 22:41:00 21° E 22:45:01 10° SE visible
